Volver al catálogo

STARLINK-31246

ActivoComunicacionesVLEO
NORAD 58835·PAYLOAD·🇺🇸 United States

Lanzado Jan 24, 2024 desde Vandenberg Space Force Base

Loading…

Próximos Pases (próximas 24 horas)

TLE

ActualizadoSource: CelesTrak SupGP

Época: Sep 14, 2026, 20:41 UTC

1 58835C 24017K   26257.86229167  .00042647  00000+0  12604-2 0  2570
2 58835  53.1597  44.2537 0001113  77.5915 112.6202 15.34358884    10

Sigue STARLINK-31246 en tiempo real con AllMySat

Download on the App Store